Main page
METAR-TAF:

METAR-TAF

Airports :

Jasper County Airport (Bell Field)

Jasper, Texas, United States

latitude: 30-53-08N, longitude: 094-02-05W, elevation: 213 ft

Current weather observation

The report was made 17 minutes ago, at 02:55 UTC
Wind 8 mph from the North with gusts up to 20 mph
Temperature 46°F
Humidity 71%
Pressure 30.54 in. Hg
Visibility: 10 miles
Overcast at a height of 2900 ft

METAR: KJAS 210255Z AUTO 01007G17KT 10SM OVC029 08/03 A3054 RMK AO2 T00800029

Time: 21:12 (03:12 UTC)


TAF: missing

Weather observations and forecasts of more than 4000 airports (METAR and TAF reports).

The available stations are represented by yellow and red dots on the map.

Hover mouse over dot to see the name of the station.

Then click to see weather observations and forecasts.

To change the map : click on the green buttons with a black cross to zoom in, on the green button with a dash to zoom out, or on the green arrows for adjacent maps.


METAR-TAF: